| time (UTC) | temp F | wind direction | speed MPH | gust MPH | rain 1hr in | rain 24hr in | rain mn in | humidity % | barometer mb |
| 20260504223004 | 81 | 215 | 1.0 | 7.0 | 0.00 | 0.00 | 0.00 | 60 | 1010.2 |
| 20260504222503 | 81 | 213 | 0.0 | 5.0 | 0.00 | 0.00 | 0.00 | 61 | 1010.4 |
| 20260504222003 | 80 | 159 | 1.0 | 9.0 | 0.00 | 0.00 | 0.00 | 61 | 1010.4 |
| 20260504221507 | 80 | 214 | 1.0 | 11.0 | 0.00 | 0.00 | 0.00 | 60 | 1010.5 |
| 20260504221003 | 81 | 314 | 2.0 | 11.0 | 0.00 | 0.00 | 0.00 | 60 | 1010.5 |
| 20260504220505 | 81 | 224 | 2.0 | 7.0 | 0.00 | 0.00 | 0.00 | 59 | 1010.6 |
| 20260504220012 | 81 | 207 | 1.0 | 3.0 | 0.00 | 0.00 | 0.00 | 60 | 1010.6 |
| 20260504215505 | 82 | 179 | 0.0 | 3.0 | 0.00 | 0.00 | 0.00 | 62 | 1010.6 |
| 20260504215002 | 81 | 246 | 0.0 | 7.0 | 0.00 | 0.00 | 0.00 | 60 | 1010.5 |
| 20260504214503 | 81 | 215 | 2.0 | 14.0 | 0.00 | 0.00 | 0.00 | 60 | 1010.5 |
| 20260504214003 | 80 | 249 | 1.0 | 14.0 | 0.00 | 0.00 | 0.00 | 60 | 1010.6 |
| 20260504213503 | 81 | 255 | 1.0 | 4.0 | 0.00 | 0.00 | 0.00 | 60 | 1010.8 |
| 20260504213003 | 81 | 186 | 1.0 | 5.0 | 0.00 | 0.00 | 0.00 | 61 | 1011.0 |
| 20260504212502 | 81 | 229 | 1.0 | 5.0 | 0.00 | 0.00 | 0.00 | 61 | 1011.1 |
| 20260504212005 | 81 | 236 | 1.0 | 8.0 | 0.00 | 0.00 | 0.00 | 60 | 1011.2 |
| 20260504211508 | 81 | 266 | 1.0 | 8.0 | 0.00 | 0.00 | 0.00 | 60 | 1011.2 |
| 20260504211005 | 81 | 172 | 0.0 | 6.0 | 0.00 | 0.00 | 0.00 | 61 | 1011.2 |
| 20260504210503 | 81 | 229 | 2.0 | 6.0 | 0.00 | 0.00 | 0.00 | 61 | 1011.4 |
| 20260504210015 | 80 | 191 | 1.0 | 3.0 | 0.00 | 0.00 | 0.00 | 61 | 1011.5 |
| 20260504205506 | 80 | 244 | 1.0 | 6.0 | 0.00 | 0.00 | 0.00 | 61 | 1011.5 |
| 20260504205008 | 79 | 175 | 2.0 | 6.0 | 0.00 | 0.00 | 0.00 | 61 | 1011.6 |
| 20260504204514 | 79 | 213 | 2.0 | 7.0 | 0.00 | 0.00 | 0.00 | 60 | 1011.7 |
| 20260504204004 | 79 | 203 | 1.0 | 7.0 | 0.00 | 0.00 | 0.00 | 61 | 1011.6 |
| 20260504203502 | 79 | 197 | 1.0 | 5.0 | 0.00 | 0.00 | 0.00 | 61 | 1011.7 |
| 20260504203004 | 79 | 224 | 1.0 | 6.0 | 0.00 | 0.00 | 0.00 | 60 | 1012.0 |
| 20260504202506 | 80 | 234 | 1.0 | 6.0 | 0.00 | 0.00 | 0.00 | 60 | 1012.0 |
| 20260504202004 | 80 | 210 | 1.0 | 3.0 | 0.00 | 0.00 | 0.00 | 59 | 1012.1 |
| 20260504201505 | 80 | 207 | 1.0 | 3.0 | 0.00 | 0.00 | 0.00 | 60 | 1012.3 |
| 20260504201003 | 80 | 173 | 1.0 | 4.0 | 0.00 | 0.00 | 0.00 | 60 | 1012.3 |
| 20260504200503 | 80 | 279 | 1.0 | 4.0 | 0.00 | 0.00 | 0.00 | 59 | 1012.4 |
| 20260504200014 | 80 | 244 | 1.0 | 3.0 | 0.00 | 0.00 | 0.00 | 59 | 1012.4 |
| 20260504195503 | 80 | 286 | 1.0 | 3.0 | 0.00 | 0.00 | 0.00 | 59 | 1012.7 |
| 20260504195007 | 80 | 238 | 0.0 | 6.0 | 0.00 | 0.00 | 0.00 | 61 | 1012.6 |
| 20260504194516 | 80 | 215 | 1.0 | 6.0 | 0.00 | 0.00 | 0.00 | 61 | 1012.8 |
| 20260504194007 | 80 | 201 | 1.0 | 4.0 | 0.00 | 0.00 | 0.00 | 60 | 1012.9 |
| 20260504193511 | 80 | 297 | 1.0 | 3.0 | 0.00 | 0.00 | 0.00 | 59 | 1012.9 |
| 20260504193018 | 80 | 238 | 1.0 | 3.0 | 0.00 | 0.00 | 0.00 | 60 | 1013.0 |
| 20260504192503 | 80 | 266 | 1.0 | 2.0 | 0.00 | 0.00 | 0.00 | 61 | 1013.0 |
| 20260504192007 | 79 | 202 | 1.0 | 3.0 | 0.00 | 0.00 | 0.00 | 60 | 1013.1 |
| 20260504191504 | 79 | 258 | 2.0 | 4.0 | 0.00 | 0.00 | 0.00 | 60 | 1013.2 |
| 20260504191002 | 79 | 195 | 1.0 | 4.0 | 0.00 | 0.00 | 0.00 | 62 | 1013.3 |
| 20260504190508 | 78 | 234 | 1.0 | 3.0 | 0.00 | 0.00 | 0.00 | 61 | 1013.3 |
| 20260504190007 | 78 | 201 | 1.0 | 3.0 | 0.00 | 0.00 | 0.00 | 62 | 1013.4 |
| 20260504185504 | 78 | 244 | 1.0 | 7.0 | 0.00 | 0.00 | 0.00 | 61 | 1013.3 |
| 20260504185005 | 78 | 264 | 1.0 | 7.0 | 0.00 | 0.00 | 0.00 | 62 | 1013.4 |
| 20260504184515 | 78 | 224 | 1.0 | 3.0 | 0.00 | 0.00 | 0.00 | 63 | 1013.4 |
| 20260504184007 | 77 | 247 | 1.0 | 5.0 | 0.00 | 0.00 | 0.00 | 63 | 1013.5 |
| 20260504183510 | 77 | 243 | 1.0 | 7.0 | 0.00 | 0.00 | 0.00 | 63 | 1013.5 |
| 20260504183024 | 77 | 209 | 1.0 | 8.0 | 0.00 | 0.00 | 0.00 | 64 | 1013.8 |
| 20260504182505 | 77 | 211 | 3.0 | 8.0 | 0.00 | 0.00 | 0.00 | 63 | 1013.9 |
| 20260504182008 | 77 | 311 | 1.0 | 3.0 | 0.00 | 0.00 | 0.00 | 65 | 1014.0 |
| 20260504181504 | 77 | 268 | 1.0 | 8.0 | 0.00 | 0.00 | 0.00 | 64 | 1014.2 |
| 20260504181004 | 76 | 243 | 1.0 | 8.0 | 0.00 | 0.00 | 0.00 | 65 | 1014.0 |
| 20260504180504 | 76 | 209 | 1.0 | 6.0 | 0.00 | 0.00 | 0.00 | 66 | 1014.1 |
| 20260504180004 | 76 | 323 | 1.0 | 8.0 | 0.00 | 0.00 | 0.00 | 65 | 1014.1 |
| 20260504175504 | 76 | 248 | 1.0 | 8.0 | 0.00 | 0.00 | 0.00 | 66 | 1014.2 |
| 20260504175005 | 75 | 273 | 1.0 | 6.0 | 0.00 | 0.00 | 0.00 | 68 | 1014.3 |
| 20260504174507 | 74 | 298 | 1.0 | 3.0 | 0.00 | 0.00 | 0.00 | 68 | 1014.4 |
| 20260504174003 | 74 | 265 | 1.0 | 3.0 | 0.00 | 0.00 | 0.00 | 68 | 1014.5 |
| 20260504173506 | 74 | 220 | 1.0 | 3.0 | 0.00 | 0.00 | 0.00 | 68 | 1014.7 |
| 20260504173014 | 73 | 220 | 1.0 | 3.0 | 0.00 | 0.00 | 0.00 | 68 | 1014.9 |
| 20260504172509 | 73 | 306 | 1.0 | 3.0 | 0.00 | 0.00 | 0.00 | 70 | 1014.9 |
| 20260504172006 | 73 | 292 | 1.0 | 2.0 | 0.00 | 0.00 | 0.00 | 69 | 1015.1 |
| 20260504171521 | 73 | 279 | 1.0 | 2.0 | 0.00 | 0.00 | 0.00 | 71 | 1015.3 |
| 20260504171011 | 73 | 275 | 0.0 | 2.0 | 0.00 | 0.00 | 0.00 | 70 | 1015.4 |
| 20260504170505 | 73 | 224 | 0.0 | 3.0 | 0.00 | 0.00 | 0.00 | 70 | 1015.2 |
| 20260504151007 | 71 | 221 | 1.0 | 5.0 | 0.00 | 0.00 | 0.00 | 71 | 1015.8 |
| 20260504150511 | 70 | 289 | 1.0 | 4.0 | 0.00 | 0.00 | 0.00 | 71 | 1015.7 |
| 20260504141008 | 67 | 228 | 1.0 | 6.0 | 0.00 | 0.00 | 0.00 | 74 | 1015.9 |
| 20260504140507 | 66 | 271 | 1.0 | 6.0 | 0.00 | 0.00 | 0.00 | 75 | 1015.9 |
| 20260504130504 | 62 | 204 | 0.0 | 3.0 | 0.00 | 0.00 | 0.00 | 81 | 1015.8 |
| 20260504110504 | 60 | 221 | 0.0 | 2.0 | 0.00 | 0.00 | 0.00 | 80 | 1015.6 |
| 20260504100507 | 61 | 185 | 0.0 | 2.0 | 0.00 | 0.00 | 0.00 | 78 | 1015.5 |
| 20260504082002 | 62 | 209 | 1.0 | 2.0 | 0.00 | 0.00 | 0.00 | 75 | 1015.8 |
| 20260504081504 | 62 | 184 | 1.0 | 2.0 | 0.00 | 0.00 | 0.00 | 75 | 1015.9 |
| 20260504081002 | 63 | 208 | 0.0 | 2.0 | 0.00 | 0.00 | 0.00 | 75 | 1016.0 |
| 20260504080507 | 63 | 221 | 0.0 | 3.0 | 0.00 | 0.00 | 0.00 | 75 | 1016.0 |
| 20260504050506 | 65 | 196 | 0.0 | 6.0 | 0.00 | 0.00 | 0.00 | 65 | 1018.4 |
| 20260504050022 | 65 | 208 | 1.0 | 6.0 | 0.00 | 0.00 | 0.00 | 65 | 1018.2 |
| 20260504045506 | 65 | 204 | 1.0 | 2.0 | 0.00 | 0.00 | 0.00 | 64 | 1018.3 |
| 20260504045014 | 65 | 232 | 0.0 | 4.0 | 0.00 | 0.00 | 0.00 | 64 | 1018.3 |
| 20260504044511 | 65 | 182 | 1.0 | 4.0 | 0.00 | 0.00 | 0.00 | 64 | 1018.4 |
| 20260504044003 | 65 | 190 | 1.0 | 4.0 | 0.00 | 0.00 | 0.00 | 63 | 1018.4 |
| 20260504043503 | 66 | 222 | 0.0 | 4.0 | 0.00 | 0.00 | 0.00 | 62 | 1018.5 |
| 20260504043013 | 66 | 232 | 0.0 | 5.0 | 0.00 | 0.00 | 0.00 | 61 | 1018.4 |
| 20260504042506 | 66 | 157 | 1.0 | 6.0 | 0.00 | 0.00 | 0.00 | 61 | 1018.4 |
| 20260504042005 | 66 | 213 | 1.0 | 6.0 | 0.00 | 0.00 | 0.00 | 60 | 1018.5 |
| 20260504041517 | 66 | 204 | 0.0 | 6.0 | 0.00 | 0.00 | 0.00 | 59 | 1018.6 |
| 20260504041005 | 67 | 188 | 1.0 | 6.0 | 0.00 | 0.00 | 0.00 | 58 | 1018.6 |
| 20260504040506 | 67 | 202 | 1.0 | 3.0 | 0.00 | 0.00 | 0.00 | 57 | 1018.6 |
| 20260504040020 | 67 | 149 | 0.0 | 4.0 | 0.00 | 0.00 | 0.00 | 57 | 1018.6 |
| 20260504035507 | 67 | 205 | 1.0 | 4.0 | 0.00 | 0.00 | 0.00 | 57 | 1018.6 |
| 20260504035010 | 67 | 196 | 1.0 | 3.0 | 0.00 | 0.00 | 0.00 | 56 | 1018.5 |
| 20260504034523 | 66 | 211 | 0.0 | 3.0 | 0.00 | 0.00 | 0.00 | 58 | 1018.5 |
| 20260504034010 | 65 | 184 | 0.0 | 3.0 | 0.00 | 0.00 | 0.00 | 61 | 1018.5 |
| 20260504033509 | 65 | 188 | 0.0 | 2.0 | 0.00 | 0.00 | 0.00 | 62 | 1018.4 |
| 20260504033012 | 65 | 188 | 0.0 | 2.0 | 0.00 | 0.00 | 0.00 | 62 | 1018.3 |
| 20260504032505 | 65 | 188 | 0.0 | 2.0 | 0.00 | 0.00 | 0.00 | 61 | 1018.3 |
| 20260504032005 | 64 | 188 | 0.0 | 1.0 | 0.00 | 0.00 | 0.00 | 62 | 1018.2 |
| 20260504031506 | 64 | 188 | 0.0 | 0.0 | 0.00 | 0.00 | 0.00 | 62 | 1018.4 |
| 20260504031001 | 64 | 188 | 0.0 | 0.0 | 0.00 | 0.00 | 0.00 | 62 | 1018.3 |
| 20260504030502 | 64 | 188 | 0.0 | 0.0 | 0.00 | 0.00 | 0.00 | 62 | 1018.3 |
| 20260504030003 | 64 | 188 | 0.0 | 0.0 | 0.00 | 0.00 | 0.00 | 61 | 1018.3 |
| 20260504025502 | 65 | 188 | 0.0 | 0.0 | 0.00 | 0.00 | 0.00 | 61 | 1018.3 |
| 20260504025004 | 65 | 188 | 0.0 | 0.0 | 0.00 | 0.00 | 0.00 | 62 | 1018.2 |
| 20260504024502 | 65 | 188 | 0.0 | 0.0 | 0.00 | 0.00 | 0.00 | 60 | 1018.3 |
| 20260504024001 | 65 | 188 | 0.0 | 0.0 | 0.00 | 0.00 | 0.00 | 60 | 1018.3 |
| 20260504023502 | 65 | 188 | 0.0 | 0.0 | 0.00 | 0.00 | 0.00 | 60 | 1018.2 |
| 20260504023008 | 65 | 188 | 0.0 | 0.0 | 0.00 | 0.00 | 0.00 | 59 | 1018.0 |
| 20260504022505 | 66 | 188 | 0.0 | 0.0 | 0.00 | 0.00 | 0.00 | 58 | 1018.2 |
| 20260504022004 | 66 | 188 | 0.0 | 0.0 | 0.00 | 0.00 | 0.00 | 57 | 1018.2 |
| 20260504021515 | 66 | 188 | 0.0 | 0.0 | 0.00 | 0.00 | 0.00 | 56 | 1018.3 |
| 20260504021005 | 66 | 188 | 0.0 | 0.0 | 0.00 | 0.00 | 0.00 | 55 | 1018.2 |
| 20260504020505 | 67 | 188 | 0.0 | 0.0 | 0.00 | 0.00 | 0.00 | 54 | 1018.2 |
| 20260504020003 | 67 | 188 | 0.0 | 0.0 | 0.00 | 0.00 | 0.00 | 53 | 1018.1 |
| 20260504015502 | 68 | 188 | 0.0 | 1.0 | 0.00 | 0.00 | 0.00 | 53 | 1017.9 |
| 20260504015001 | 68 | 188 | 0.0 | 2.0 | 0.00 | 0.00 | 0.00 | 52 | 1017.7 |
| 20260504014503 | 68 | 188 | 0.0 | 2.0 | 0.00 | 0.00 | 0.00 | 52 | 1017.7 |
| 20260504014002 | 69 | 193 | 0.0 | 0.0 | 0.00 | 0.00 | 0.00 | 51 | 1017.6 |
| 20260504013503 | 69 | 193 | 0.0 | 0.0 | 0.00 | 0.00 | 0.00 | 50 | 1017.6 |
| 20260504013007 | 69 | 193 | 0.0 | 2.0 | 0.00 | 0.00 | 0.00 | 50 | 1017.6 |
| 20260504012503 | 70 | 193 | 0.0 | 2.0 | 0.00 | 0.00 | 0.00 | 49 | 1017.6 |
| 20260504012003 | 70 | 167 | 0.0 | 0.0 | 0.00 | 0.00 | 0.00 | 48 | 1017.6 |
| 20260504011511 | 71 | 167 | 0.0 | 3.0 | 0.00 | 0.00 | 0.00 | 46 | 1017.6 |
| 20260504011002 | 71 | 167 | 0.0 | 3.0 | 0.00 | 0.00 | 0.00 | 45 | 1017.7 |
| 20260504010506 | 72 | 167 | 0.0 | 3.0 | 0.00 | 0.00 | 0.00 | 44 | 1017.7 |
| 20260504010015 | 72 | 167 | 0.0 | 3.0 | 0.00 | 0.00 | 0.00 | 43 | 1017.7 |
| 20260504005507 | 72 | 167 | 0.0 | 5.0 | 0.00 | 0.00 | 0.00 | 43 | 1017.6 |
| 20260504005006 | 72 | 194 | 1.0 | 5.0 | 0.00 | 0.00 | 0.00 | 43 | 1017.6 |
| 20260504004511 | 73 | 225 | 0.0 | 2.0 | 0.00 | 0.00 | 0.00 | 43 | 1017.6 |
| 20260504004003 | 73 | 186 | 0.0 | 2.0 | 0.00 | 0.00 | 0.00 | 43 | 1017.6 |
| 20260504003501 | 73 | 186 | 0.0 | 2.0 | 0.00 | 0.00 | 0.00 | 43 | 1017.6 |
| 20260504003003 | 73 | 253 | 0.0 | 2.0 | 0.00 | 0.00 | 0.00 | 42 | 1017.7 |
| 20260504002503 | 74 | 184 | 0.0 | 2.0 | 0.00 | 0.00 | 0.00 | 41 | 1017.7 |
| 20260504002003 | 74 | 205 | 0.0 | 2.0 | 0.00 | 0.00 | 0.00 | 42 | 1017.8 |
| 20260504001519 | 74 | 205 | 0.0 | 2.0 | 0.00 | 0.00 | 0.00 | 41 | 1018.0 |
| 20260504001003 | 74 | 167 | 0.0 | 2.0 | 0.00 | 0.00 | 0.00 | 42 | 1017.9 |
| 20260504000502 | 74 | 214 | 0.0 | 3.0 | 0.00 | 0.00 | 0.00 | 42 | 1018.1 |
| 20260504000007 | 74 | 212 | 1.0 | 3.0 | 0.00 | 0.00 | 0.00 | 41 | 1018.2 |
| 20260503235506 | 74 | 204 | 0.0 | 5.0 | 0.00 | 0.00 | 0.00 | 41 | 1018.2 |
| 20260503235006 | 75 | 238 | 1.0 | 5.0 | 0.00 | 0.00 | 0.00 | 41 | 1018.2 |
| 20260503234518 | 75 | 168 | 1.0 | 7.0 | 0.00 | 0.00 | 0.00 | 42 | 1018.2 |
| 20260503234006 | 75 | 175 | 0.0 | 7.0 | 0.00 | 0.00 | 0.00 | 41 | 1018.2 |
| 20260503233509 | 75 | 257 | 0.0 | 2.0 | 0.00 | 0.00 | 0.00 | 40 | 1018.3 |
| 20260503233004 | 75 | 239 | 0.0 | 6.0 | 0.00 | 0.00 | 0.00 | 39 | 1018.3 |
| 20260503232502 | 75 | 273 | 1.0 | 6.0 | 0.00 | 0.00 | 0.00 | 40 | 1018.3 |
| 20260503232003 | 75 | 215 | 0.0 | 2.0 | 0.00 | 0.00 | 0.00 | 40 | 1018.3 |
| 20260503231504 | 75 | 224 | 0.0 | 2.0 | 0.00 | 0.00 | 0.00 | 40 | 1018.3 |
| 20260503231004 | 75 | 203 | 0.0 | 2.0 | 0.00 | 0.00 | 0.00 | 41 | 1018.2 |
| 20260503230503 | 75 | 194 | 1.0 | 2.0 | 0.00 | 0.00 | 0.00 | 39 | 1018.1 |
| 20260503230008 | 76 | 219 | 1.0 | 2.0 | 0.00 | 0.00 | 0.00 | 40 | 1018.2 |
| 20260503225503 | 76 | 227 | 0.0 | 4.0 | 0.00 | 0.00 | 0.00 | 37 | 1018.3 |
| 20260503225006 | 77 | 186 | 0.0 | 4.0 | 0.00 | 0.00 | 0.00 | 39 | 1018.3 |
| 20260503224516 | 77 | 257 | 1.0 | 4.0 | 0.00 | 0.00 | 0.00 | 40 | 1018.2 |
| 20260503224008 | 77 | 186 | 1.0 | 4.0 | 0.00 | 0.00 | 0.00 | 39 | 1018.4 |
| 20260503223505 | 77 | 264 | 0.0 | 2.0 | 0.00 | 0.00 | 0.00 | 37 | 1018.5 |
| 20260503223027 | 77 | 246 | 0.0 | 5.0 | 0.00 | 0.00 | 0.00 | 37 | 1018.7 |